Phoenix-Mesa Gateway Airport, AZ

7:48 AM MST on March 23, 2017 (GMT -0700)
Phoenix-Mesa Gateway Airport

Weather History for KIWA - February, 2013

Change the Weather History Date:

Monday, February 4, 2013

  Actual Average Record
Temperature  
Mean Temperature 62 °F -  
Max Temperature 73 °F 64 °F 89 °F (2002)
Min Temperature 51 °F 41 °F 26 °F (2011)
Degree Days  
Heating Degree Days 3    
Growing Degree Days 12 (Base 50)    
Moisture  
Dew Point 45 °F    
Average Humidity 65    
Maximum Humidity 88    
Minimum Humidity 29    
Precipitation  
Precipitation 0.00 in - - ()
Sea Level Pressure  
Sea Level Pressure 30.01 in    
Wind  
Wind Speed 3 mph (ESE)    
Max Wind Speed 7 mph    
Max Gust Speed -    
Visibility 12 miles    
Events      
Averages and records for this station are not official NWS values.
T = Trace of Precipitation, MM = Missing Value Source: NWS Daily Summary

Daily Weather History Graph

Daily Weather History Graph

Search for Another Location

Airport or City:

Trip Planner

Search our weather history database for the weather conditions in past years. The results will help you decide how hot, cold, wet, or windy it might be!

Date:

Astronomy

Feb. 04, 2013 Rise Set
Actual Time 7:19 AM MST 6:01 PM MST
Civil Twilight 6:54 AM MST 6:27 PM MST
Nautical Twilight 6:24 AM MST 6:57 PM MST
Astronomical Twilight 5:55 AM MST 7:26 PM MST
Moon 1:56 AM MST (2/4) 12:32 PM MST (2/4)
Length of Visible Light 11h 33m
Length of Day
10h 41m
Last Quarter, 36% of the Moon is Illuminated
Feb 4
Last Quarter
Feb 10
New
Feb 17
First Quarter
Feb 25
Full
Mar 4
Last Quarter

Hourly Weather History & Observations

Time (MST) Temp. Dew Point Humidity Pressure Visibility Wind Dir Wind Speed Gust Speed Precip Events Conditions
12:15 AM 51.8 °F 46.4 °F 82% 30.01 in 10.0 mi SSE 3.5 mph - N/A   Clear
12:35 AM 51.8 °F 46.4 °F 82% 30.02 in 10.0 mi Calm Calm - N/A   Mostly Cloudy
12:55 AM 51.8 °F 46.4 °F 82% 30.02 in 10.0 mi ESE 4.6 mph - N/A   Overcast
1:15 AM 51.8 °F 46.4 °F 82% 30.02 in 10.0 mi East 4.6 mph - N/A   Scattered Clouds
1:35 AM 51.8 °F 48.2 °F 88% 30.02 in 10.0 mi East 5.8 mph - N/A   Mostly Cloudy
1:55 AM 51.8 °F 46.4 °F 82% 30.02 in 10.0 mi East 4.6 mph - N/A   Overcast
2:15 AM 51.8 °F 46.4 °F 82% 30.02 in 10.0 mi East 4.6 mph - N/A   Overcast
3:55 AM 51.8 °F 46.4 °F 82% 30.01 in 10.0 mi SE 3.5 mph - N/A   Overcast
4:15 AM 51.8 °F 46.4 °F 82% 30.01 in 10.0 mi East 3.5 mph - N/A   Overcast
4:35 AM 51.8 °F 46.4 °F 82% 30.00 in 10.0 mi East 4.6 mph - N/A   Overcast
4:55 AM 51.8 °F 46.4 °F 82% 30.00 in 10.0 mi ESE 4.6 mph - N/A   Mostly Cloudy
5:15 AM 51.8 °F 46.4 °F 82% 30.01 in 10.0 mi ESE 4.6 mph - N/A   Clear
5:47 AM 51.8 °F 44.6 °F 76% 30.01 in 20.0 mi East 5.8 mph - N/A   Mostly Cloudy
6:47 AM 53.6 °F 46.4 °F 77% 30.02 in 20.0 mi NE 3.5 mph - N/A   Overcast
7:47 AM 51.8 °F 44.6 °F 76% 30.03 in 20.0 mi Calm Calm - N/A   Mostly Cloudy
8:47 AM 55.4 °F 46.4 °F 72% 30.04 in 20.0 mi Variable 3.5 mph - N/A   Mostly Cloudy
9:47 AM 57.2 °F 44.6 °F 63% 30.05 in 35.0 mi South 4.6 mph - N/A   Partly Cloudy
10:47 AM 62.6 °F 44.6 °F 52% 30.05 in 30.0 mi Variable 3.5 mph - N/A   Partly Cloudy
11:57 AM 64.4 °F 42.8 °F 45% 30.05 in 30.0 mi Calm Calm - N/A   Partly Cloudy
12:52 PM 66.2 °F 39.2 °F 37% 30.02 in 30.0 mi Calm Calm - N/A   Partly Cloudy
1:47 PM 69.8 °F 39.2 °F 33% 30.00 in 30.0 mi WNW 3.5 mph - N/A   Partly Cloudy
2:47 PM 71.6 °F 37.4 °F 29% 29.97 in 30.0 mi WNW 3.5 mph - N/A   Partly Cloudy
3:47 PM 73.4 °F 41.0 °F 31% 29.96 in 30.0 mi Variable 4.6 mph - N/A   Partly Cloudy
4:47 PM 73.4 °F 41.0 °F 31% 29.96 in 30.0 mi Calm Calm - N/A   Partly Cloudy
5:47 PM 71.6 °F 41.0 °F 33% 29.95 in 30.0 mi Calm Calm - N/A   Clear
6:47 PM 66.2 °F 41.0 °F 40% 29.96 in 30.0 mi Calm Calm - N/A   Clear
7:47 PM 62.6 °F 42.8 °F 48% 29.97 in 20.0 mi Calm Calm - N/A   Clear
7:55 PM 60.8 °F 44.6 °F 55% 29.98 in 10.0 mi Calm Calm - N/A   Clear
8:15 PM 60.8 °F 42.8 °F 52% 29.99 in 10.0 mi Calm Calm - N/A   Clear
8:35 PM 59.0 °F 44.6 °F 59% 29.99 in 10.0 mi Calm Calm - N/A   Clear
8:47 PM 57.2 °F 44.6 °F 63% 29.99 in 20.0 mi Calm Calm - N/A   Clear
8:55 PM 57.2 °F 42.8 °F 59% 30.00 in 10.0 mi Calm Calm - N/A   Clear
9:15 PM 57.2 °F 44.6 °F 63% 30.00 in 10.0 mi ENE 5.8 mph - N/A   Clear
9:35 PM 57.2 °F 46.4 °F 67% 30.01 in 10.0 mi East 4.6 mph - N/A   Clear
9:55 PM 55.4 °F 46.4 °F 72% 30.01 in 10.0 mi East 6.9 mph - N/A   Clear
10:15 PM 55.4 °F 46.4 °F 72% 30.01 in 10.0 mi East 5.8 mph - N/A   Clear
10:35 PM 53.6 °F 46.4 °F 77% 30.01 in 10.0 mi ESE 4.6 mph - N/A   Clear
10:55 PM 53.6 °F 44.6 °F 72% 30.01 in 10.0 mi ESE 3.5 mph - N/A   Clear
11:15 PM 51.8 °F 44.6 °F 76% 30.01 in 10.0 mi East 5.8 mph - N/A   Clear
11:35 PM 51.8 °F 44.6 °F 76% 30.01 in 10.0 mi SE 4.6 mph - N/A   Clear
11:55 PM 51.8 °F 46.4 °F 82% 30.01 in 10.0 mi ESE 4.6 mph - N/A   Clear